Flag for Laos Weather past 2 weeks in Vientiane, Laos

Now
77 °F

Fog.


Feels Like: 78 °F
Forecast: 74 / 98 °F
Wind: 2 mph from Southeast

Location: Vientiane Airport

Current Time: Apr 1, 2015 at 1:48:42 AM

Latest Report: Mar 31, 2015 at 11:00 PM


Visibility: 2 mi

Pressure: 29.83 "Hg

Humidity: 83%

Dew point: 72 °F

Location of VientianeLocation

Historic Weather in Vientiane — Graph

°F

Vientiane temperature yesterday

Maximum temperature yesterday: 95 °F (at 4:00 PM)
Minimum temperature yesterday: 73 °F (at 6:00 AM)
Average temperature yesterday: 82 °F

Past Weeks' High & Low Weather Summary

 TemperatureHumidityPressure
High99 °F (Mar 19, 4:00 PM)100% (Mar 23, 7:00 AM)30.12 "Hg (Mar 23, 7:00 AM)
Low72 °F (Mar 23, 7:00 AM)43% (Mar 25, 12:30 PM)29.65 "Hg (Mar 18, 3:30 PM)
Average84 °F66%29.88 "Hg
* Reported Mar 17 6:00 AM — Mar 31 11:00 PM, Vientiane, Weather by CustomWeather, © 2015

Note: Actual official high and low records may vary slightly from our data, if they occured in-between our weather recording intervals... More about our weather records

Advertising

Vientiane weather history for previous 24 hours

 ConditionsComfort  
Time TempWeatherWind HumidityBarometerVisibility
11:00 PM
Tue, Mar 31
77 °FFog.2 mph83%29.83 "Hg2 mi
10:30 PM77 °FFog.2 mph83%29.80 "Hg2 mi
10:00 PM77 °FFog.2 mph83%29.80 "Hg2 mi
9:30 PM77 °FFog.2 mph83%29.80 "Hg2 mi
9:00 PM77 °FFog.2 mph83%29.80 "Hg2 mi
8:30 PM79 °FFog.2 mph79%29.77 "Hg2 mi
7:30 PM79 °FFog.5 mph74%29.74 "Hg2 mi
7:00 PM79 °FThunderstorms. Passing clouds.2 mph74%29.74 "Hg2 mi
6:30 PM81 °FThunderstorms. Partly cloudy.7 mph58%29.74 "Hg2 mi
6:00 PM81 °FThunderstorms. Broken clouds.9 mph58%29.74 "Hg3 mi
5:30 PM91 °FThunderstorms. Broken clouds.18 mph52%29.71 "Hg4 mi
4:00 PM95 °FScattered clouds.2 mph47%29.71 "HgN/A
3:30 PM93 °FScattered clouds.2 mph49%29.74 "HgN/A
3:00 PM93 °FScattered clouds.2 mph49%29.74 "HgN/A
2:30 PM91 °FScattered clouds.2 mph52%29.80 "HgN/A
2:00 PM91 °FScattered clouds.2 mph52%29.80 "HgN/A
1:00 PM90 °FPassing clouds.5 mph52%29.83 "Hg5 mi
12:30 PM88 °FPassing clouds.5 mph52%29.89 "Hg4 mi
12:00 PM88 °FPassing clouds.5 mph52%29.89 "Hg4 mi
11:30 AM86 °FClear.2 mph59%29.89 "Hg4 mi
11:00 AM84 °FClear.5 mph62%29.92 "Hg4 mi
10:30 AM82 °FClear.2 mph66%29.92 "Hg4 mi
9:30 AM79 °FFog.2 mph70%29.89 "Hg3 mi
9:00 AM79 °FFog.2 mph70%29.89 "Hg3 mi
8:30 AM75 °FFog.2 mph78%29.89 "Hg3 mi
8:00 AM75 °FFog.2 mph78%29.89 "Hg3 mi
7:30 AM75 °FFog.2 mph78%29.89 "Hg3 mi
7:00 AM73 °FFog.2 mph83%29.86 "Hg2 mi
6:30 AM73 °FFog.2 mph83%29.86 "Hg2 mi
6:00 AM73 °FFog.2 mph83%29.83 "Hg2 mi
Weather by CustomWeather, © 2015

See weather overviewHow to use our weather pages